DECAYED

STARLINK-1814, 46712 (Decayed)

Orbit data source: Space-Track

STARLINK-1814, 46712 was a payload satellite owned by SpaceX/Seattle (US) in LEO that was launched on Sun, 18 Oct 2020 UTC via an FALCON 9 launch vehicle from the Air Force Eastern Test Range (AFETR). Payload-class satellites include a variety of spacecraft equipped with specific instruments for various scientific and technological missions. These include communications satellites like Starlink; space stations such as the ISS; scientific satellites like the Hubble; Earth observation satellites from companies like Planet Labs, Umbra, and HawkEye 360; GPS; miniature CubeSats for education and research; and military/defense satellites.

Not visible in the next 10 days
Identifier
46712, 2020-073AU
Orbit
Decayed
Country
Flag of USUS
Related business
Manufacturer
SpaceX/Seattle
Mission
Decayed Commercial Communications
Bus & Motor
STARLINK, Unknown motor
Mass
260 kg wet, ~248 kg dry
Launch date (UTC)
2020-10-18 (5 years ago)
Launch vehicle
FALCON 9
Launch site
Air Force Eastern Test Range (AFETR)
Object type
Payload
Rocket body
Debris
Shape & HBR
Box + 1 Pan, 10.1 m
Radar Cross Section
13.562 m², Large (>1 m²)

Expand to show TLE details & history
Last TLE update: 3 weeks ago

TLE from 3 weeks ago
0 STARLINK-1814
1 46712U 20073AU  26084.92323558  .04964988  12122-4  10448-2 0  9998
2 46712  53.0226 100.1416 0002949  26.6133 333.5060 16.30164514300530
Epoch: 2026-03-25T22:09Z
TLE epoch observation values (Epoch: 2026-03-25T22:09:27.554Z)
Latitude
0.00001°
Longitude
-55.60278°
Altitude
191.287 km
Speed
7.794 km/s
True Right ascension
06h 40m 33s
True Declination
0° 00' 00"
Sunlit
Object was in daylight at epoch
Visualization orbit readout
Latitude
Unknown
Longitude
Unknown
Altitude
Unknown
Speed
Unknown
Apparent Right ascension
Unknown
Apparent Declination
Unknown
Sunlit
N/A
Visualization observer readout
Local Sidereal Time
05:29:39
Azimuth
Unknown
Elevation
Unknown
Doppler factor
Unknown
Orbital elements
Apogee altitude
194.326 km
Perigee altitude
190.45 km
Semi-major axis
6,570.525 km
Eccentricity
0.00029
Inclination
53.0226°
RAAN
100.1416°
Arg. of periapsis
26.6133°
True anomaly
333.49092°
Mean anomaly
333.506°
Eccentric anomaly
333.49846°
Mean motion
4.07514 °/min
Orbital period
88.34 mins
BSTAR
0.0010448
Loading maneuver chart data...
Computing Atmospheric mass density...
Loading historical data...
Loading historical data...
Loading historical data...
Loading historical data...
Loading historical data...
Loading historical data...
Loading historical data...

Documentation

Showing up to 5 results
|